• In Spain
  • List of Countries
  • For 7 days
  • Water Temperature
  • Satellite Maps
  • Weather Map
  • Weather Widgets
  • user-avatar
    Login

    Hourly Weather Brisbane

    Today, 23 June, Saturday

    Time Temperature Precipitation Wind Pressure Humidity
    00:00 +13°C° 0 mm 3 mps 767 mmHg 85%
    01:00 +12°C° 0 mm 3 mps 767 mmHg 86%
    02:00 +12°C° 0 mm 3 mps 767 mmHg 87%
    03:00 +12°C° 0 mm 3 mps 767 mmHg 88%
    04:00 +11°C° 0 mm 3 mps 767 mmHg 89%
    05:00 +11°C° 0 mm 3 mps 767 mmHg 89%
    06:00 +11°C° 0 mm 3 mps 767 mmHg 89%
    07:00 +11°C° 0 mm 3 mps 767 mmHg 90%
    08:00 +13°C° 0 mm 3 mps 767 mmHg 78%
    09:00 +17°C° 0 mm 3 mps 767 mmHg 67%
    10:00 +20°C° 0 mm 2 mps 767 mmHg 55%
    11:00 +21°C° 0 mm 2 mps 767 mmHg 49%
    12:00 +23°C° 0 mm 2 mps 766 mmHg 43%
    13:00 +24°C° 0 mm 2 mps 766 mmHg 37%
    14:00 +24°C° 0 mm 2 mps 765 mmHg 39%
    15:00 +23°C° 0 mm 2 mps 765 mmHg 41%
    16:00 +23°C° 0 mm 2 mps 765 mmHg 43%
    17:00 +20°C° 0 mm 2 mps 765 mmHg 51%
    18:00 +18°C° 0 mm 2 mps 766 mmHg 59%
    19:00 +16°C° 0 mm 2 mps 766 mmHg 68%
    20:00 +16°C° 0 mm 2 mps 766 mmHg 71%
    21:00 +15°C° 0 mm 1 mps 766 mmHg 75%
    22:00 +14°C° 0 mm 1 mps 767 mmHg 79%
    23:00 +14°C° 0 mm 1 mps 767 mmHg 81%

    Tomorrow, 24 June, Sunday

    Time Temperature Precipitation Wind Pressure Humidity
    00:00 +14°C° 0 mm 2 mps 766 mmHg 82%
    01:00 +13°C° 0 mm 2 mps 766 mmHg 84%
    02:00 +13°C° 0 mm 2 mps 766 mmHg 82%
    03:00 +12°C° 0 mm 2 mps 766 mmHg 81%
    04:00 +12°C° 0 mm 2 mps 766 mmHg 80%
    05:00 +12°C° 0 mm 2 mps 766 mmHg 77%
    06:00 +12°C° 0 mm 2 mps 766 mmHg 74%
    07:00 +10°C° 0 mm 2 mps 766 mmHg 71%
    08:00 +14°C° 0 mm 2 mps 767 mmHg 61%
    09:00 +17°C° 0 mm 2 mps 767 mmHg 50%
    10:00 +20°C° 0 mm 2 mps 767 mmHg 39%
    11:00 +21°C° 0 mm 2 mps 766 mmHg 35%
    12:00 +23°C° 0 mm 2 mps 765 mmHg 30%
    13:00 +24°C° 0 mm 2 mps 765 mmHg 26%
    14:00 +24°C° 0 mm 2 mps 765 mmHg 29%
    15:00 +23°C° 0 mm 2 mps 765 mmHg 33%
    16:00 +22°C° 0 mm 3 mps 765 mmHg 37%
    17:00 +20°C° 0 mm 3 mps 765 mmHg 47%
    18:00 +18°C° 0 mm 3 mps 766 mmHg 57%
    19:00 +16°C° 0 mm 3 mps 766 mmHg 67%
    20:00 +14°C° 0 mm 3 mps 767 mmHg 70%
    21:00 +14°C° 0 mm 3 mps 767 mmHg 72%
    22:00 +13°C° 0 mm 3 mps 768 mmHg 75%
    23:00 +13°C° 0 mm 3 mps 767 mmHg 78%

    Day after tomorrow, 25 June, Monday

    Time Temperature Precipitation Wind Pressure Humidity
    00:00 +12°C° 0 mm 3 mps 767 mmHg 80%
    01:00 +12°C° 0 mm 3 mps 767 mmHg 83%
    02:00 +11°C° 0.1 mm 3 mps 767 mmHg 85%
    03:00 +11°C° 0.1 mm 3 mps 767 mmHg 86%
    04:00 +11°C° 0.1 mm 4 mps 767 mmHg 88%
    05:00 +11°C° 0.1 mm 4 mps 767 mmHg 88%
    06:00 +11°C° 0.1 mm 4 mps 768 mmHg 87%
    07:00 +11°C° 0.1 mm 4 mps 768 mmHg 87%
    08:00 +13°C° 0.2 mm 4 mps 769 mmHg 79%
    09:00 +15°C° 0.2 mm 4 mps 769 mmHg 72%
    10:00 +18°C° 0.2 mm 4 mps 769 mmHg 64%
    11:00 +19°C° 0.2 mm 4 mps 768 mmHg 61%
    12:00 +20°C° 0.2 mm 4 mps 768 mmHg 58%
    13:00 +21°C° 0.2 mm 4 mps 767 mmHg 55%
    14:00 +21°C° 0.1 mm 4 mps 767 mmHg 58%
    15:00 +21°C° 0.1 mm 4 mps 767 mmHg 60%
    16:00 +20°C° 0.1 mm 4 mps 767 mmHg 63%
    17:00 +19°C° 0.1 mm 4 mps 767 mmHg 70%
    18:00 +17°C° 0.1 mm 4 mps 768 mmHg 76%
    19:00 +15°C° 0.1 mm 4 mps 768 mmHg 83%
    20:00 +16°C° 0.2 mm 3 mps 769 mmHg 85%
    21:00 +14°C° 0.2 mm 3 mps 769 mmHg 87%
    22:00 +14°C° 0.2 mm 3 mps 769 mmHg 89%
    23:00 +14°C° 0.2 mm 3 mps 769 mmHg 89%

    26 June, Tuesday

    Time Temperature Precipitation Wind Pressure Humidity
    00:00 +14°C° 0.2 mm 3 mps 769 mmHg 89%
    01:00 +14°C° 0.2 mm 3 mps 769 mmHg 90%
    02:00 +13°C° 0.1 mm 3 mps 769 mmHg 90%
    03:00 +13°C° 0.1 mm 3 mps 769 mmHg 90%
    04:00 +13°C° 0.1 mm 3 mps 769 mmHg 90%
    05:00 +13°C° 0.1 mm 3 mps 769 mmHg 90%
    06:00 +13°C° 0.1 mm 3 mps 769 mmHg 90%
    07:00 +13°C° 0.1 mm 3 mps 770 mmHg 90%
    08:00 +16°C° 0.1 mm 3 mps 770 mmHg 82%
    09:00 +18°C° 0.1 mm 4 mps 770 mmHg 75%
    10:00 +19°C° 0.1 mm 4 mps 770 mmHg 67%
    11:00 +20°C° 0.3 mm 4 mps 770 mmHg 66%
    12:00 +21°C° 0.3 mm 4 mps 769 mmHg 64%
    13:00 +21°C° 0.3 mm 4 mps 769 mmHg 63%
    14:00 +20°C° 0.5 mm 4 mps 768 mmHg 68%
    15:00 +20°C° 0.5 mm 4 mps 768 mmHg 74%
    16:00 +19°C° 0.5 mm 4 mps 768 mmHg 79%
    17:00 +18°C° 0.5 mm 4 mps 769 mmHg 82%
    18:00 +17°C° 0.5 mm 4 mps 769 mmHg 86%
    19:00 +17°C° 0.5 mm 4 mps 769 mmHg 89%
    20:00 +17°C° 0.6 mm 3 mps 769 mmHg 89%
    21:00 +17°C° 0.6 mm 3 mps 770 mmHg 89%
    22:00 +17°C° 0.6 mm 3 mps 770 mmHg 89%
    23:00 +17°C° 0.6 mm 3 mps 769 mmHg 89%

    27 June, Wednesday

    Time Temperature Precipitation Wind Pressure Humidity
    00:00 +17°C° 0.6 mm 3 mps 769 mmHg 90%
    01:00 +16°C° 0.6 mm 3 mps 769 mmHg 90%
    02:00 +16°C° 0.2 mm 3 mps 768 mmHg 90%
    03:00 +16°C° 0.2 mm 3 mps 768 mmHg 90%
    04:00 +16°C° 0.2 mm 3 mps 768 mmHg 90%
    05:00 +16°C° 0.2 mm 3 mps 768 mmHg 90%
    06:00 +16°C° 0.2 mm 3 mps 768 mmHg 90%
    07:00 +16°C° 0.2 mm 3 mps 768 mmHg 90%
    08:00 +17°C° 0.3 mm 4 mps 768 mmHg 87%
    09:00 +18°C° 0.3 mm 4 mps 768 mmHg 84%
    10:00 +19°C° 0.3 mm 4 mps 767 mmHg 81%
    11:00 +19°C° 0.4 mm 4 mps 767 mmHg 79%
    12:00 +19°C° 0.4 mm 4 mps 766 mmHg 78%
    13:00 +20°C° 0.4 mm 5 mps 765 mmHg 76%
    14:00 +19°C° 1.2 mm 4 mps 765 mmHg 79%
    15:00 +19°C° 1.2 mm 4 mps 764 mmHg 82%
    16:00 +18°C° 1.2 mm 3 mps 764 mmHg 85%
    17:00 +18°C° 6.9 mm 3 mps 764 mmHg 88%
    18:00 +17°C° 6.9 mm 3 mps 764 mmHg 91%
    19:00 +17°C° 6.9 mm 2 mps 764 mmHg 94%
    20:00 +17°C° 2.2 mm 2 mps 764 mmHg 94%
    21:00 +16°C° 2.2 mm 2 mps 764 mmHg 94%
    22:00 +16°C° 2.2 mm 2 mps 764 mmHg 95%
    23:00 +16°C° 0.1 mm 2 mps 764 mmHg 94%

    28 June, Thursday

    Time Temperature Precipitation Wind Pressure Humidity
    00:00 +16°C° 0.1 mm 3 mps 763 mmHg 94%
    01:00 +14°C° 0.1 mm 3 mps 763 mmHg 94%
    02:00 +14°C° 0 mm 3 mps 763 mmHg 93%
    03:00 +14°C° 0 mm 3 mps 762 mmHg 93%
    04:00 +13°C° 0 mm 3 mps 762 mmHg 93%
    05:00 +13°C° 0 mm 3 mps 763 mmHg 93%
    06:00 +13°C° 0 mm 3 mps 763 mmHg 93%
    07:00 +13°C° 0 mm 3 mps 763 mmHg 92%
    08:00 +14°C° 0 mm 3 mps 763 mmHg 86%
    09:00 +17°C° 0 mm 3 mps 763 mmHg 80%
    10:00 +18°C° 0 mm 3 mps 763 mmHg 74%
    11:00 +19°C° 0 mm 3 mps 763 mmHg 66%
    12:00 +21°C° 0 mm 3 mps 762 mmHg 57%
    13:00 +22°C° 0 mm 3 mps 761 mmHg 49%
    14:00 +22°C° 0 mm 3 mps 761 mmHg 49%
    15:00 +21°C° 0 mm 3 mps 761 mmHg 49%
    16:00 +21°C° 0 mm 3 mps 761 mmHg 49%
    17:00 +19°C° 0 mm 3 mps 762 mmHg 56%
    18:00 +17°C° 0 mm 3 mps 762 mmHg 63%
    19:00 +14°C° 0 mm 4 mps 763 mmHg 70%
    20:00 +13°C° 0 mm 4 mps 763 mmHg 73%
    21:00 +12°C° 0 mm 3 mps 763 mmHg 77%
    22:00 +11°C° 0 mm 3 mps 764 mmHg 80%
    23:00 +10°C° 0 mm 3 mps 763 mmHg 81%
    Show more